Location: Cahas Mountain Overlook
(37.0833°N, 80.1000°W)
Time: 19:32:39
(UTC-04:00)

SR - Pass Details

Date: 10 February 2026
Orbit: 572 x 849 km, 66.7° (Epoch: 12 March)

Event Time Altitude Azimuth Distance (km) Brightness Sun altitude
Rises 15:19:14 0° 337° (NNW) 3,074 ? 25.8°
Reaches altitude 10° 15:21:33 10° 342° (NNW) 2,197 ? 25.5°
Maximum altitude 15:26:29 54° 60° (ENE) 911 ? 24.8°
Drops below altitude 10° 15:31:47 10° 137° (SE) 2,358 ? 24.0°
Sets 15:34:20 0° 142° (SE) 3,319 ? 23.6°
